Location: Zagreb
(45.8000°N, 16.0000°E)
Time: 15:19:14
(UTC+02:00)

Transit 2A - Pass Details

Date: 18 August 2022
Orbit: 601 x 956 km, 66.7° (Epoch: 25 September)

Event Time Altitude Azimuth Distance (km) Brightness Sun altitude
Rises 11:45:18 0° 232° (SW) 3,100 9.2 53.6°
Reaches altitude 10° 11:47:51 10° 240° (WSW) 2,129 8.4 53.9°
Maximum altitude 11:52:21 40° 310° (NW) 963 6.7 54.3°
Drops below altitude 10° 11:56:34 10° 20° (NNE) 1,996 8.0 54.6°
Sets 11:58:54 0° 28° (NNE) 2,881 8.8 54.8°
